Orbital Elements at Epoch 2459200.5 (2020-Dec-17.0) TDB
Reference: JPL 38 (heliocentric ecliptic J2000)
Element | Value | Uncertainty (1-sigma) | Units |
e | .06129562670237133 | 4.8505e-08 | |
a | 2.912129912846317 | 1.3967e-08 | au |
q | 2.73362908479968 | 1.3943e-07 | au |
i | .8644876808646222 | 3.8613e-06 | deg |
node | 274.601348745459 | 0.00034902 | deg |
peri | 59.84603513063853 | 0.00035067 | deg |
M | 187.4450686424775 | 3.565e-05 | deg |
tp | 2460070.540400061742 (2023-May-06.04040006) | 0.00018118 | TDB |
period | 1815.158463209997 4.97 | 1.3059e-05 3.575e-08 | d yr |
n | .1983297917490697 | 1.4269e-09 | deg/d |
Q | 3.090630740892954 | 1.4823e-08 | au |
|
| | Orbit Determination Parameters
Additional Information
|